Location: CAO
(44.5093°N, 80.3921°W)
Time: 01:47:50
(UTC-04:00)

ARIANE 6 FM1 Upper Stage - Visible Passes

Search period start: 14 October 2024 00:00
Search period end: 24 October 2024 00:00
Orbit: 563 x 595 km, 62.0° (Epoch: 13 October)

Date Brightness Start Highest point End Pass type
(mag) Time Alt. Az. Time Alt. Az. Time Alt. Az.
14 Oct 4.5 20:55:52 10° NNW 20:58:09 23° N 20:58:09 23° N visible
15 Oct 5.0 19:22:07 10° N 19:23:39 12° NNE 19:25:13 10° NE visible
15 Oct 4.3 20:59:59 10° NNW 21:02:24 28° N 21:02:24 28° N visible
16 Oct 4.8 19:25:52 10° N 19:28:18 14° NNE 19:30:24 11° ENE visible
16 Oct 4.2 21:04:09 10° NNW 21:06:41 33° NNW 21:06:41 33° NNW visible
17 Oct 4.5 19:29:48 10° NNW 19:32:52 18° NNE 19:34:46 14° ENE visible
17 Oct 4.1 21:08:23 10° NW 21:11:03 36° NW 21:11:03 36° NW visible
18 Oct 4.1 19:33:48 10° NNW 19:37:22 24° NE 19:39:11 19° ENE visible
18 Oct 4.2 21:12:42 10° NW 21:15:29 36° WNW 21:15:29 36° WNW visible
19 Oct 3.6 19:37:50 10° NNW 19:41:47 33° NE 19:43:42 23° E visible
19 Oct 4.5 21:17:08 10° NW 21:20:00 31° W 21:20:00 31° W visible
20 Oct 3.1 19:41:55 10° NNW 19:46:09 47° NE 19:48:21 25° ESE visible
20 Oct 4.9 21:21:44 10° WNW 21:24:40 23° WSW 21:24:40 23° WSW visible
21 Oct 2.7 19:46:04 10° NW 19:50:25 71° NE 19:53:10 22° SE visible
21 Oct 5.4 21:26:45 10° W 21:29:13 15° WSW 21:29:30 15° WSW visible
22 Oct 2.9 19:50:16 10° NW 19:54:38 75° SW 19:58:12 15° SSE visible
23 Oct 3.7 19:54:34 10° NW 19:58:46 47° WSW 20:02:57 10° SSE visible
